User: anonymous   Login
Location: Eastlake (historical)
(39.0077°N, 122.6678°W)
Time: 19:38:06
(UTC+00:00)
Language:

Cosmos 1538 Rocket - Orbit

View from above orbital plane
View from above orbital plane
View from above satellite
View from above satellite

Ground track
Ground track

The orbit data is extracted from the following two-line orbital elements,

1 14760U 84019B   21060.26720474  .00000042  00000-0  23357-4 0  9991
2 14760  74.0444 159.5330 0027064  45.1076 315.2267 14.35896236937575
Epoch (UTC): 01 March 2021 06:24:46
Eccentricity: 0.0027064
inclination: 74.0444°
perigee height: 753 km
apogee height: 791 km
right ascension of ascending node: 159.5330°
argument of perigee: 45.1076°
revolutions per day: 14.35896236
mean anomaly at epoch: 315.2267°
orbit number at epoch: 93757

The dashed part of the orbit path shows where the satellite is in the earth's shadow,  

DLR